Torna al catalogo

STARLINK-35490

AttivoComunicazioniVLEO
NORAD 66204·PAYLOAD·🇺🇸 United States

Lanciato Oct 26, 2025 da Cape Canaveral Space Force Station

Loading…

Prossimi Passaggi (prossime 24 ore)

TLE

AggiornatoSource: CelesTrak SupGP

Epoca: Sep 14, 2026, 14:30 UTC

1 66204C 25243AD  26257.60465278 -.00007896  00000+0 -23323-3 0  2578
2 66204  53.1571  85.3364 0001185  99.5461 189.3546 15.34402558    14

Traccia STARLINK-35490 in tempo reale con AllMySat

Download on the App Store